Location: The Saddle
(36.8333°N, 80.3417°W)
Time: 13:33:51
(UTC-04:00)

ISS - Visible Passes

Search period start: 08 October 2024 00:00
Search period end: 18 October 2024 00:00
Orbit: 412 x 425 km, 51.6° (Epoch: 08 October)

Date Brightness Start Highest point End Pass type
(mag) Time Alt. Az. Time Alt. Az. Time Alt. Az.
14 Oct -0.7 06:32:15 10° SSE 06:33:50 13° SE 06:35:26 10° E visible
16 Oct -2.5 06:29:52 10° SSW 06:33:00 40° SE 06:36:09 10° ENE visible
17 Oct -1.5 05:43:05 17° SSE 05:44:20 21° SE 05:46:56 10° E visible
